This is the latest recevied weather packets stored in our database for station/object N9NDF. If no packets are shown the sender has not sent any weather packets the latest 10 day(s).
| Time | Temp. | Humidity | Pressure | Rain* | Wind** | Luminosity | Snow |
|---|---|---|---|---|---|---|---|
| 1777664542 | 13.89° C | 50% | 995.5 hPa | 0 mm | - | 803 W/m² | - |
| 1777664482 | 13.89° C | 51% | 995.5 hPa | 0 mm | - | 870 W/m² | - |
| 1777664422 | 13.89° C | 51% | 995.5 hPa | 0 mm | - | 416 W/m² | - |
| 1777664362 | 13.89° C | 51% | 995.5 hPa | 0 mm | - | 331 W/m² | - |
| 1777664302 | 13.33° C | 51% | 995.5 hPa | 0 mm | - | 324 W/m² | - |
| 1777664240 | 13.33° C | 51% | 995.5 hPa | 0 mm | - | 351 W/m² | - |
| 1777664179 | 13.33° C | 50% | 995.5 hPa | 0 mm | - | 428 W/m² | - |
| 1777664120 | 13.33° C | 50% | 995.5 hPa | 0 mm | - | 600 W/m² | - |
| 1777664060 | 13.33° C | 50% | 995.5 hPa | 0 mm | - | 595 W/m² | - |
| 1777663997 | 13.33° C | 49% | 995.5 hPa | 0 mm | - | 479 W/m² | - |
| 1777663934 | 13.33° C | 51% | 995.4 hPa | 0 mm | - | 495 W/m² | - |
| 1777663875 | 13.33° C | 53% | 995.5 hPa | 0 mm | - | 596 W/m² | - |
| 1777663814 | 13.33° C | 52% | 995.5 hPa | 0 mm | - | 539 W/m² | - |
| 1777663756 | 12.78° C | 53% | 995.5 hPa | 0 mm | - | 752 W/m² | - |
| 1777663695 | 12.78° C | 53% | 995.5 hPa | 0 mm | - | 606 W/m² | - |
| 1777663631 | 12.78° C | 50% | 995.5 hPa | 0 mm | - | 875 W/m² | - |
| 1777663572 | 13.33° C | 50% | 995.5 hPa | 0 mm | - | 888 W/m² | - |
| 1777663509 | 13.33° C | 52% | 995.5 hPa | 0 mm | - | 888 W/m² | - |
| 1777663449 | 13.33° C | 51% | 995.5 hPa | 0 mm | - | 798 W/m² | - |
| 1777663389 | 12.78° C | 51% | 995.5 hPa | 0 mm | - | 874 W/m² | - |
| 1777663328 | 12.78° C | 53% | 995.6 hPa | 0 mm | - | 1053 W/m² | - |
| 1777663277 | 12.78° C | 52% | 995.6 hPa | 0 mm | - | 1110 W/m² | - |
| 1777663264 | 12.78° C | 52% | 995.6 hPa | 0 mm | - | 1115 W/m² | - |
| 1777663147 | 12.78° C | 52% | 995.6 hPa | 0 mm | - | 1116 W/m² | - |
| 1777663088 | 12.22° C | 55% | 995.7 hPa | 0 mm | - | 724 W/m² | - |
* Rain latest hour (hover to see other rain measurements)
** Current wind speed in m/s (hover to see current wind gust speed)